DW2213 Weather Reports


Display with metric or nautical units.
time (UTC)temp
F
wind
direction
speed
MPH
gust
MPH
rain 1hr
in
rain 24hr
in
rain mn
in
humidity
%
barometer
mb
20260508115306 68 5 4.0 6.0 0.00 0.02 0.00 71 1012.5
20260508114805 67 261 2.0 5.0 0.00 0.02 0.00 73 1012.5
20260508114304 66 258 2.0 5.0 0.00 0.02 0.00 74 1012.6
20260508113805 66 251 2.0 3.0 0.00 0.02 0.00 73 1012.7
20260508113305 66 251 1.0 3.0 0.00 0.02 0.00 73 1012.8
20260508112804 66 251 1.0 3.0 0.00 0.02 0.00 73 1012.7
20260508112307 66 285 3.0 6.0 0.00 0.02 0.00 73 1012.7
20260508111804 66 349 2.0 3.0 0.00 0.02 0.00 73 1012.6
20260508111305 66 348 2.0 3.0 0.00 0.02 0.00 73 1012.6
20260508110805 66 351 2.0 5.0 0.00 0.02 0.00 73 1012.5
20260508110304 66 352 3.0 7.0 0.00 0.02 0.00 73 1012.2
20260508105804 65 336 3.0 5.0 0.00 0.02 0.00 74 1012.3
20260508105306 65 299 2.0 5.0 0.00 0.02 0.00 74 1012.3
20260508104805 65 46 2.0 3.0 0.00 0.02 0.00 74 1012.3
20260508104305 65 47 1.0 3.0 0.00 0.02 0.00 74 1012.4
20260508103304 65 46 2.0 3.0 0.00 0.02 0.00 74 1012.7
20260508102805 65 46 1.0 5.0 0.00 0.02 0.00 74 1012.7
20260508102306 65 42 3.0 5.0 0.00 0.02 0.00 74 1012.7
20260508101305 65 47 3.0 3.0 0.00 0.03 0.00 74 1012.7
20260508100804 65 48 3.0 5.0 0.00 0.03 0.00 74 1012.8
20260508100304 65 47 0.0 3.0 0.00 0.03 0.00 74 1013.0
20260508095804 65 47 1.0 2.0 0.00 0.14 0.00 73 1013.0
20260508095306 65 48 0.0 3.0 0.00 0.15 0.00 73 1012.9
20260508094804 65 43 2.0 3.0 0.00 0.15 0.00 73 1012.7
20260508093805 65 46 2.0 5.0 0.00 0.15 0.00 73 1012.4
20260508093304 65 47 4.0 6.0 0.00 0.15 0.00 73 1012.3
20260508092804 65 242 2.0 3.0 0.00 0.15 0.00 73 1012.4
20260508091805 65 236 1.0 3.0 0.00 0.15 0.00 72 1012.4
20260508091304 65 236 2.0 3.0 0.00 0.15 0.00 72 1012.4
20260508090304 65 236 2.0 5.0 0.00 0.15 0.00 72 1012.5
20260508085804 65 259 2.0 6.0 0.00 0.15 0.00 73 1012.7
20260508085307 65 248 3.0 6.0 0.00 0.15 0.00 75 1012.7
20260508084805 64 266 3.0 6.0 0.00 0.15 0.00 76 1012.6
20260508084304 64 244 2.0 5.0 0.00 0.15 0.00 77 1012.6
20260508083805 64 246 2.0 5.0 0.00 0.15 0.00 77 1012.5
20260508083304 64 241 2.0 5.0 0.00 0.15 0.00 77 1012.4
20260508082805 64 233 3.0 6.0 0.00 0.15 0.00 77 1012.2
20260508082306 63 251 2.0 7.0 0.00 0.15 0.00 79 1012.2
20260508081804 63 285 3.0 7.0 0.00 0.15 0.00 80 1012.1
20260508081304 63 235 2.0 5.0 0.00 0.15 0.00 81 1012.1
20260508080804 62 246 2.0 5.0 0.00 0.15 0.00 81 1012.2
20260508080304 62 259 2.0 6.0 0.00 0.15 0.00 80 1012.1
20260508075804 62 288 2.0 3.0 0.00 0.15 0.00 80 1012.2
20260508075308 62 285 3.0 5.0 0.00 0.15 0.00 80 1012.1
20260508074804 62 329 3.0 5.0 0.00 0.15 0.00 80 1012.1
20260508073804 62 277 5.0 6.0 0.00 0.15 0.00 81 1012.0
20260508072804 61 241 2.0 5.0 0.00 0.15 0.00 82 1012.2
20260508072307 60 265 3.0 5.0 0.00 0.15 0.00 82 1012.2
20260508065804 58 326 3.0 5.0 0.00 0.15 0.00 85 1012.1
20260508064804 58 315 3.0 6.0 0.00 0.15 0.00 86 1012.0
20260508063804 58 352 2.0 3.0 0.00 0.15 0.00 87 1011.9
20260508063304 58 259 1.0 3.0 0.00 0.15 0.00 87 1011.8
20260508062804 58 265 3.0 5.0 0.00 0.15 0.00 87 1011.7
20260508062306 57 291 2.0 7.0 0.00 0.15 0.00 87 1011.5
20260508061804 57 236 2.0 3.0 0.00 0.15 0.00 87 1011.7
20260508061304 57 235 1.0 3.0 0.00 0.15 0.00 88 1011.7
20260508060805 57 236 1.0 3.0 0.00 0.15 0.00 88 1011.6
20260508060304 57 236 2.0 3.0 0.00 0.15 0.00 88 1011.6
20260508055804 57 235 2.0 3.0 0.00 0.15 0.00 88 1011.5
20260508055306 57 238 2.0 3.0 0.00 0.15 0.00 88 1011.7
20260508054804 56 235 1.0 3.0 0.00 0.15 0.00 88 1011.5
20260508054305 56 235 2.0 3.0 0.00 0.15 0.00 88 1011.4
20260508053804 56 246 2.0 5.0 0.00 0.15 0.00 88 1011.3
20260508053304 56 234 3.0 6.0 0.00 0.15 0.00 88 1011.1
20260508052804 56 234 2.0 3.0 0.00 0.15 0.00 89 1011.1
20260508052307 56 238 2.0 6.0 0.00 0.15 0.00 89 1011.1
20260508051804 56 252 2.0 3.0 0.00 0.15 0.00 89 1010.9
20260508051305 56 251 1.0 3.0 0.00 0.15 0.00 89 1010.7
20260508050804 56 250 2.0 3.0 0.00 0.15 0.00 88 1010.8
20260508050304 56 258 2.0 5.0 0.00 0.15 0.00 88 1010.7
20260508045804 56 253 3.0 3.0 0.00 0.15 0.00 88 1010.7
20260508045307 56 252 2.0 3.0 0.00 0.15 0.00 88 1010.7
20260508044804 56 271 2.0 3.0 0.00 0.15 0.00 88 1010.5
20260508044305 56 251 2.0 3.0 0.00 0.15 0.00 88 1010.6
20260508043804 56 251 1.0 3.0 0.00 0.15 0.00 88 1010.6
20260508043304 56 252 1.0 3.0 0.00 0.15 0.00 88 1010.5
20260508042804 56 251 1.0 3.0 0.00 0.15 0.00 88 1010.5
20260508041804 56 237 1.0 3.0 0.00 0.15 0.00 88 1010.4
20260508041304 56 237 2.0 6.0 0.00 0.15 0.00 88 1010.5
20260508040804 56 235 1.0 5.0 0.00 0.15 0.00 88 1010.6
20260508035804 56 244 2.0 3.0 0.00 0.15 0.00 88 1010.5
20260508035306 57 244 1.0 3.0 0.00 0.15 0.00 88 1010.5
20260508034804 57 244 2.0 3.0 0.00 0.15 0.00 88 1010.5
20260508034304 57 244 2.0 3.0 0.00 0.15 0.00 87 1010.5
20260508033804 57 244 1.0 3.0 0.00 0.15 0.00 87 1010.5
20260508031804 57 244 2.0 3.0 0.00 0.15 0.00 88 1010.5
20260508031304 57 244 1.0 2.0 0.00 0.15 0.00 88 1010.6
20260508030804 57 244 2.0 3.0 0.00 0.15 0.00 88 1010.7
20260508030304 57 244 0.0 2.0 0.00 0.15 0.00 88 1010.7
20260508025804 57 244 0.0 3.0 0.00 0.15 0.00 88 1010.7
20260508024804 57 244 1.0 5.0 0.00 0.15 0.00 88 1010.8
20260508023804 57 244 1.0 3.0 0.00 0.15 0.00 88 1011.0
20260508023304 57 244 1.0 3.0 0.00 0.15 0.00 88 1011.0
20260508022804 57 244 1.0 3.0 0.00 0.15 0.00 88 1011.0
20260508022307 57 244 1.0 3.0 0.00 0.15 0.00 88 1010.9
20260508021804 57 244 1.0 3.0 0.00 0.15 0.00 88 1010.9
20260508021304 57 244 1.0 3.0 0.00 0.15 0.00 88 1011.0
20260508020804 57 244 0.0 2.0 0.00 0.15 0.00 88 1010.9
20260508020304 57 244 1.0 3.0 0.00 0.15 0.00 88 1010.8
20260508015804 57 244 0.0 1.0 0.00 0.15 0.00 88 1010.8
20260508014804 57 243 0.0 2.0 0.00 0.15 0.00 88 1010.8
20260508014304 57 243 2.0 5.0 0.00 0.15 0.00 88 1011.0
20260508013304 57 244 1.0 3.0 0.00 0.15 0.00 88 1011.2
20260508012805 57 244 0.0 3.0 0.00 0.15 0.00 88 1011.2
20260508011304 57 244 1.0 3.0 0.00 0.15 0.00 88 1011.4
20260508010804 58 254 2.0 3.0 0.00 0.15 0.00 88 1011.5
20260508010304 58 244 1.0 3.0 0.00 0.15 0.00 88 1011.6
20260508005804 58 243 1.0 3.0 0.00 0.15 0.00 87 1011.7
20260508005306 58 244 0.0 3.0 0.00 0.15 0.00 87 1011.6
20260508004804 58 243 1.0 3.0 0.00 0.15 0.00 87 1011.6
20260508004304 58 243 1.0 3.0 0.00 0.15 0.00 87 1011.6
20260508003804 58 244 2.0 5.0 0.00 0.15 0.00 87 1011.6
20260508003304 58 246 2.0 5.0 0.00 0.15 0.00 87 1011.6
20260508002306 58 243 1.0 5.0 0.00 0.15 0.00 87 1011.7
20260508001804 58 243 1.0 3.0 0.00 0.15 0.00 87 1011.8
20260508001304 58 243 2.0 3.0 0.00 0.15 0.00 87 1011.9
20260508000804 58 243 1.0 5.0 0.00 0.15 0.00 87 1011.9
20260508000305 58 243 1.0 3.0 0.00 0.15 0.00 88 1012.0
20260507235803 58 244 0.0 2.0 0.00 0.15 0.00 88 1012.0
20260507235306 58 243 1.0 3.0 0.00 0.15 0.00 88 1011.9
20260507234804 58 243 1.0 3.0 0.00 0.15 0.00 88 1012.0
20260507234304 58 243 2.0 3.0 0.00 0.15 0.00 88 1012.0
20260507233804 58 243 2.0 5.0 0.00 0.15 0.00 88 1012.1
20260507233304 58 243 2.0 5.0 0.00 0.15 0.00 89 1012.1
20260507232804 58 244 2.0 5.0 0.00 0.15 0.00 89 1012.1
20260507232306 58 243 2.0 3.0 0.00 0.15 0.00 88 1012.2
20260507231804 58 249 2.0 3.0 0.00 0.15 0.00 89 1012.2
20260507231304 58 243 2.0 5.0 0.00 0.15 0.00 89 1012.3
20260507230804 58 257 3.0 5.0 0.00 0.15 0.00 89 1012.3
20260507230304 58 244 0.0 5.0 0.00 0.15 0.00 89 1012.4
20260507225804 58 244 2.0 5.0 0.00 0.15 0.00 88 1012.2
20260507224304 58 293 2.0 7.0 0.00 0.15 0.00 88 1012.2
20260507223803 58 274 2.0 6.0 0.00 0.15 0.00 88 1012.2
20260507223304 58 313 3.0 7.0 0.00 0.15 0.00 88 1012.2
20260507222803 58 279 2.0 7.0 0.00 0.15 0.00 88 1012.1
20260507222306 58 257 1.0 6.0 0.00 0.15 0.00 88 1012.1
20260507221304 58 254 2.0 7.0 0.00 0.15 0.00 88 1012.1
20260507220305 58 252 3.0 6.0 0.00 0.15 0.00 88 1012.2
20260507215804 58 229 2.0 6.0 0.00 0.15 0.15 88 1012.1
20260507215306 58 244 2.0 8.0 0.00 0.15 0.15 88 1012.1
20260507214805 58 233 2.0 5.0 0.00 0.15 0.15 88 1012.2
20260507213804 58 238 2.0 5.0 0.00 0.15 0.15 88 1012.1
20260507213304 58 237 1.0 3.0 0.00 0.15 0.15 88 1012.1
20260507212804 58 237 1.0 3.0 0.00 0.15 0.15 88 1012.0
20260507212307 58 237 1.0 3.0 0.00 0.15 0.15 88 1012.0
20260507211804 58 237 2.0 5.0 0.00 0.15 0.15 88 1011.8
20260507211304 59 236 1.0 2.0 0.00 0.15 0.15 88 1011.8
20260507210803 59 236 2.0 3.0 0.00 0.15 0.15 88 1011.7
20260507210304 59 236 2.0 3.0 0.00 0.15 0.15 88 1011.7
20260507205803 59 237 1.0 3.0 0.00 0.15 0.15 88 1011.7
20260507205306 59 237 1.0 6.0 0.00 0.15 0.15 88 1011.5
20260507204804 59 261 3.0 3.0 0.00 0.15 0.15 88 1011.5
20260507204304 59 281 0.0 2.0 0.01 0.15 0.15 88 1011.4
20260507203803 59 286 1.0 2.0 0.01 0.15 0.15 88 1011.4
20260507203304 59 283 0.0 2.0 0.01 0.15 0.15 88 1011.4
20260507202803 59 282 0.0 3.0 0.01 0.15 0.15 88 1011.4
20260507201804 59 286 1.0 3.0 0.01 0.15 0.15 88 1011.4
20260507201304 60 286 1.0 3.0 0.02 0.15 0.15 88 1011.4
20260507200803 60 287 0.0 1.0 0.02 0.15 0.15 88 1011.5
20260507200304 60 287 0.0 0.0 0.02 0.15 0.15 88 1011.5
20260507195804 60 287 0.0 0.0 0.02 0.15 0.15 87 1011.4
20260507195306 60 287 1.0 3.0 0.02 0.15 0.15 87 1011.4
20260507194304 60 291 1.0 2.0 0.01 0.14 0.14 87 1011.3
20260507193804 60 288 0.0 2.0 0.01 0.14 0.14 87 1011.4
20260507193303 60 288 2.0 3.0 0.01 0.14 0.14 87 1011.4
20260507192804 60 290 1.0 3.0 0.01 0.14 0.14 86 1011.4
20260507192306 60 290 0.0 3.0 0.01 0.14 0.14 86 1011.3
20260507191804 61 298 2.0 3.0 0.01 0.14 0.14 86 1011.2
20260507191304 61 310 3.0 6.0 0.00 0.13 0.13 85 1011.1
20260507190804 61 286 2.0 7.0 0.00 0.13 0.13 84 1011.1
20260507190304 61 305 4.0 8.0 0.00 0.13 0.13 83 1011.0
20260507185804 61 290 3.0 7.0 0.00 0.13 0.13 82 1011.1
20260507184803 62 298 5.0 10.0 0.00 0.13 0.13 79 1011.0
20260507184303 63 339 5.0 10.0 0.00 0.13 0.13 77 1011.0
20260507183804 63 338 6.0 12.0 0.00 0.13 0.13 75 1011.0
20260507183304 64 336 6.0 14.0 0.00 0.13 0.13 75 1011.0
20260507182803 65 340 6.0 13.0 0.00 0.13 0.13 73 1010.9
20260507182306 67 343 3.0 12.0 0.00 0.13 0.13 77 1010.7
20260507181803 67 23 5.0 9.0 0.00 0.13 0.13 76 1010.4
20260507181304 67 32 5.0 7.0 0.00 0.13 0.13 76 1010.3
20260507180803 67 42 5.0 8.0 0.00 0.13 0.13 76 1010.3
20260507180303 67 52 5.0 8.0 0.00 0.13 0.13 76 1010.3
20260507175803 67 48 5.0 9.0 0.00 0.13 0.13 76 1010.2
20260507175306 67 63 5.0 6.0 0.00 0.13 0.13 76 1010.2
20260507174305 68 61 3.0 7.0 0.00 0.13 0.13 76 1010.2
20260507173805 68 19 4.0 7.0 0.00 0.13 0.13 76 1010.1
20260507173305 68 29 2.0 7.0 0.00 0.13 0.13 75 1010.2
20260507172805 68 23 5.0 9.0 0.00 0.13 0.13 73 1010.2
20260507172307 68 34 4.0 6.0 0.00 0.13 0.13 73 1010.1
20260507171805 68 53 2.0 6.0 0.00 0.13 0.13 72 1010.0
20260507171305 68 24 2.0 6.0 0.00 0.13 0.13 72 1010.0
20260507170805 68 28 2.0 6.0 0.00 0.13 0.13 72 1010.0
20260507170305 68 51 1.0 3.0 0.00 0.13 0.13 74 1010.0
20260507165805 68 50 2.0 6.0 0.00 0.13 0.13 73 1009.9
20260507165306 68 52 3.0 5.0 0.00 0.13 0.13 72 1009.9
20260507164805 68 63 2.0 5.0 0.00 0.13 0.13 72 1009.9
20260507164305 68 35 3.0 5.0 0.00 0.13 0.13 73 1009.9
20260507163804 68 34 2.0 3.0 0.00 0.13 0.13 73 1009.9
20260507163305 68 34 3.0 5.0 0.00 0.13 0.13 74 1009.8
20260507162804 68 33 2.0 6.0 0.00 0.13 0.13 73 1009.8
20260507162307 68 19 3.0 6.0 0.00 0.13 0.13 72 1009.7
20260507161804 68 73 1.0 5.0 0.00 0.13 0.13 73 1009.7
20260507160805 68 59 1.0 3.0 0.00 0.13 0.13 73 1009.6
20260507160305 68 31 1.0 6.0 0.00 0.13 0.13 73 1009.5
20260507155805 68 22 4.0 7.0 0.00 0.13 0.13 72 1009.4
20260507155306 68 50 2.0 9.0 0.00 0.13 0.13 72 1009.3
20260507154804 68 63 5.0 9.0 0.00 0.13 0.13 71 1009.3
20260507154305 68 78 3.0 9.0 0.00 0.13 0.13 71 1009.2
20260507153804 69 64 3.0 7.0 0.00 0.13 0.13 72 1009.2
20260507153305 69 35 3.0 9.0 0.00 0.13 0.13 71 1009.2
20260507152805 68 45 3.0 8.0 0.00 0.13 0.13 71 1009.2
20260507152306 68 17 3.0 7.0 0.00 0.13 0.13 71 1009.2
20260507151804 68 69 2.0 7.0 0.00 0.13 0.13 70 1009.2
20260507150805 69 11 4.0 10.0 0.00 0.13 0.13 70 1009.3
20260507150305 69 53 2.0 8.0 0.00 0.13 0.13 71 1009.4
20260507145307 69 29 5.0 9.0 0.00 0.13 0.13 70 1009.6
20260507144804 69 63 4.0 12.0 0.00 0.13 0.13 70 1009.5
20260507144305 69 74 5.0 9.0 0.00 0.13 0.13 70 1009.6
20260507143804 69 45 3.0 10.0 0.00 0.13 0.13 68 1009.5
20260507143305 70 21 6.0 12.0 0.00 0.13 0.13 67 1009.4
20260507142804 70 81 6.0 9.0 0.00 0.13 0.13 66 1009.5
20260507142307 70 57 3.0 12.0 0.00 0.13 0.13 65 1009.6
20260507141804 70 49 5.0 12.0 0.00 0.13 0.13 63 1009.7
20260507141304 70 100 4.0 10.0 0.00 0.13 0.13 64 1009.7
20260507140805 70 84 2.0 8.0 0.00 0.13 0.13 67 1009.7
20260507135805 71 18 4.0 13.0 0.00 0.13 0.13 67 1009.7
20260507134804 69 72 5.0 10.0 0.00 0.13 0.13 71 1009.7
20260507133805 69 55 3.0 8.0 0.00 0.13 0.13 70 1009.9
20260507133304 69 89 4.0 14.0 0.00 0.13 0.13 69 1009.9
20260507132804 69 118 3.0 8.0 0.00 0.13 0.13 68 1009.9
20260507132307 69 108 5.0 12.0 0.00 0.13 0.13 69 1010.0
20260507131805 70 49 6.0 13.0 0.00 0.13 0.13 70 1009.9
20260507130804 69 40 4.0 10.0 0.00 0.13 0.13 72 1010.0
20260507125804 68 25 4.0 12.0 0.00 0.13 0.13 76 1010.2
20260507124805 68 57 3.0 12.0 0.00 0.13 0.13 75 1010.3
20260507124304 68 49 3.0 6.0 0.00 0.13 0.13 74 1010.3
20260507123805 68 64 2.0 8.0 0.00 0.13 0.13 75 1010.4
20260507123304 68 63 2.0 9.0 0.00 0.13 0.13 76 1010.5
20260507122804 68 63 4.0 10.0 0.00 0.13 0.13 76 1010.4
20260507122307 67 51 3.0 7.0 0.00 0.13 0.13 76 1010.4
20260507121805 68 27 3.0 7.0 0.00 0.13 0.13 77 1010.6
20260507120805 68 39 5.0 12.0 0.00 0.13 0.13 78 1010.6
20260507115804 67 43 4.0 9.0 0.00 0.13 0.13 79 1010.5